Regional Weather Roundup
Issued by NWS

Home | Current Version | Previous Version | Graphics & Text | Print | Product List | Glossary On
Versions: 1 2 3 4 5 6 7 8 9 10 11 12 13 14 15 16 17 18 19 20 21 22 23 24 25 26 27 28 29 30 31 32 33 34 35 36 37 38 39 40 41 42 43 44 45 46 47 48 49 50
000
ASUS43 KMKX 300800
RWRWI

WISCONSIN REGIONAL WEATHER ROUNDUP
NATIONAL WEATHER SERVICE MILWAUKEE/SULLIVAN WI
300 AM CDT FRI SEP 30 2016

NOTE: "FAIR" INDICATES FEW OR NO CLOUDS BELOW 12,000 FEET WITH NO
SIGNIFICANT WEATHER AND/OR OBSTRUCTIONS TO VISIBILITY.

WIZ001-002-006>008-014>016-023>028-300900-
NORTHWEST WISCONSIN

CITY           SKY/WX    TMP DP  RH WIND       PRES   REMARKS
SUPERIOR ARPT  CLOUDY    53  51  94 E5        30.45S
ASHLAND        CLOUDY    53  52  96 E3        30.45S
HAYWARD        CLOUDY    51  49  92 NE7       30.43S
SIREN          CLOUDY    52  51  96 E6        30.42S
CUMBERLAND     CLEAR     46  46 100 NE5       30.40F FOG
RICE LAKE      CLEAR     49  48  95 CALM      30.42S FOG
CHETEK         NOT AVBL
LADYSMITH      CLEAR     48  47  96 N3        30.43S FOG
EAU CLAIRE     NOT AVBL
MENOMONIE      CLEAR     50  48  93 CALM      30.39S
NEW RICHMOND   CLEAR     49  49  99 N3        30.39S
OSCEOLA        CLEAR     48  48 100 CALM      30.42S
$$

WIZ003>005-009-010-017-018-300900-
NORTH CENTRAL WISCONSIN

CITY           SKY/WX    TMP DP  RH WIND       PRES   REMARKS
MANITOWISH WTR NOT AVBL
ARBOR VITAE    CLEAR     49  48  96 CALM      30.42S
WOODRUFF       CLEAR     49  48  96 CALM      30.42S
RHINELANDER    CLEAR     46  46 100 CALM      30.41S
EAGLE RIVER    CLEAR     44  44 100 CALM      30.42R FOG
LAND O LAKES   MOCLDY    47  47 100 N5        30.44S FOG
PHILLIPS       CLOUDY    48  48 100 CALM      30.41S FOG
TOMAHAWK       FOG       42  41  97 CALM      30.41S VSB 1/4
MEDFORD        CLEAR    N/A N/A N/A NE5       30.38F
MERRILL        CLEAR     46  46 100 CALM      30.40S
$$

WIZ029-030-035-036-043>047-300900-
CENTRAL WISCONSIN

CITY           SKY/WX    TMP DP  RH WIND       PRES   REMARKS
WAUSAU         CLEAR     51  48  89 CALM      30.36S
MOSINEE        CLEAR     50  48  93 N9        30.37F
MARSHFIELD     CLEAR     53  48  83 NE8       30.35F
STEVENS POINT  CLEAR     49  48  96 NE6       30.35S
WAUPACA        PTCLDY    56  53  91 N6        30.32F
WAUTOMA        CLOUDY    55  52  89 N7        30.31F
WISC RAPIDS    CLEAR     52  50  93 N9        30.35S
CAMP DOUGLAS   NOT AVBL
$$

WIZ011>013-019>022-031-037>040-048>050-300900-
NORTHEAST WISCONSIN

CITY           SKY/WX    TMP DP  RH WIND       PRES   REMARKS
ANTIGO         CLEAR     46  46  97 CALM      30.38F
SHAWANO        MOCLDY    56  51  85 NE7       30.34F
OCONTO         NOT AVBL
STURGEON BAY   CLOUDY    59  56  89 NE8       30.32F
GREEN BAY      CLOUDY    56  55  97 N13       30.30F
MANITOWOC      NOT AVBL
APPLETON       CLOUDY    54  54 100 N14       30.29F
CLINTONVILLE   MOCLDY    54  50  87 N6        30.33F
OSHKOSH        CLOUDY    58  55  90 N15       30.28F
$$

WIZ032>034-041-042-053>061-300900-
SOUTHWEST WISCONSIN

CITY           SKY/WX    TMP DP  RH WIND       PRES   REMARKS
LA CROSSE      CLEAR     54  51  90 N7        30.34S
SPARTA         PTCLDY    46  46 100 CALM      30.35S
VIROQUA        MOCLDY    54  51  90 NE7       30.32F
BOSCOBEL       MOCLDY    56  51  84 VRB3      30.30S
PRAIRIE DU CHI CLEAR     53  48  83 CALM      30.29F
PLATTEVILLE    CLEAR     54  52  92 N8        30.28S
$$

WIZ056-057-062-063-064-067-068-300900-
SOUTH CENTRAL WISCONSIN

CITY           SKY/WX    TMP DP  RH WIND       PRES   REMARKS
REEDSBURG      NOT AVBL
BARABOO/DELLS  CLOUDY    57  52  81 N7        30.29F
LONE ROCK      NOT AVBL
MINERAL POINT  PTCLDY    54  52  94 N9        30.27F
MADISON        CLOUDY    58  54  86 N10       30.25F
MIDDLETON      CLOUDY    58  55  88 N9        30.27F
WATERTOWN      CLOUDY    59  56  90 NE9       30.24F
MONROE         MOCLDY    55  54  94 N10       30.23F
JANESVILLE     CLOUDY    59  55  88 N7        30.21F
$$

WIZ051-052-058>065-066-070>072-300900-
SOUTHEAST WISCONSIN

CITY           SKY/WX    TMP DP  RH WIND       PRES   REMARKS
MILWAUKEE      CLOUDY    60  55  83 NE10      30.22F
WAUKESHA       CLOUDY    57  54  88 NE10G16   30.23F
MILWAUKEE/TIMM CLOUDY    59  52  77 NE9       30.24S
RACINE         CLOUDY    61  56  83 NE13      30.22S
BURLINGTON     CLOUDY    58  54  84 NE9       30.21S
KENOSHA        CLOUDY    60  57  89 NE7G17    30.20S
FOND DU LAC    CLOUDY    60  56  86 NE14      30.27F
SHEBOYGAN      CLOUDY    60  55  83 NE14      30.25F
WEST BEND      CLOUDY    66  63  88 NE8       30.24F
JUNEAU         CLOUDY    59  54  82 N12       30.26F
$$

LSZ147-162-300900-
LAKE SUPERIOR

STATION/POSITION TIME  TEMP    WIND        PRES    WAVE
                       AIR SEA DIR/SP/G            HT/PER
                 (UTC) (F)     (DEG/KT/KT) (MB)    (FT/S)
W MID LAKE BUOY  0650   55 56   60/  6/  8 1031.1F   2/ 5
DEVILS ISLAND    0700   53      80/  9/ 10 1031.8S
SAXON HARBOR     0740   53     150/  4/  5 1030.5S
$$

LMZ867-665-643>646-300900-
LAKE MICHIGAN

STATION/POSITION TIME  TEMP    WIND        PRES    WAVE
                       AIR SEA DIR/SP/G            HT/PER
                 (UTC) (F)     (DEG/KT/KT) (MB)    (FT/S)
CHAMBERS ISLAND  0700   61      10/ 17/ 19 1027.1F
S GREEN BAY BUOY 0700   59 62   40/ 16/ 19 1026.3F
N MID LAKE BUOY  0650   64 65   80/ 14/ 17 1027.1S   3/ 4
NORTHPORT PIER   0700   61      20/  7/ 11 1027.4F
SISTER BAY       0708   59      20/  7/ 10   N/A
KEWAUNEE LAKESHO 0700   62      50/ 12/ 16 1025.4F
SHEBOYGAN LAKESH 0700   61      30/ 16/ 17 1024.6F
PORT WASHINGTON  0600   60      50/ 12/ 18 1025.7F
ATWATER BUOY     0700   56 53   10/ 10/ 14 1023.3F
MILWAUKEE LAKESH 0710   59      10/ 11/ 13   N/A
S MID LAKE BUOY  0650   63 68   60/ 21/ 27 1021.4F   5/ 7
KENOSHA   LAKESH 0700   61      30/ 16/ 21 1022.0F
$$

TC  - TEMPERATURE IN CELSIUS
VSB - VISIBILITY IN STATUTE MILES
WCI - WIND CHILL INDEX
HX  - HEAT INDEX





USA.gov is the U.S. government's official web portal to all federal, state and local government web resources and services.